[[{"header":{"parameterUnit":"m.s-1","parameterCategory":1,"la1":30.2991,"la2":30.254,"lo1":-89.0895,"lo2":-89.0444,"dy":0.0017,"dx":0.0017,"nx":28,"ny":28,"refTime":"2024-04-09T21:00:00:Z","depth":0,"parameterNumber":2,"parameterNumberName":"U-component_of_WINDS"},"data":[0,0,0,0,0,0,0,0,0,0,0,0,0,0,0,0,0,0,0,0,0,0,0,0,0,0,0,0,0,0,0,0,0,0,0,0,0,0,0,0,0,0,0,0,0,0,0,0,0,0,0,0,0,0,0,0,0,0,0.1789,0.1785,0,0.1461,0.1458,0.1454,0.1285,0.1284,0.1284,0.1284,0.095,0.0942,0.0933,0,0,0,0,0,0,0,0,0,0,0,0,0,0.2269,0.2261,0.1789,0.1785,0.1781,0.1462,0.1458,0.1453,0.1285,0.1284,0.1284,0.1284,0.0953,0.0943,0.0932,0,0,0,0,0,0,0,0,0,0,0,0,0,0.2013,0.2258,0.179,0.1658,0.1643,0.1463,0.1457,0.1452,0.1285,0.1284,0.1284,0.1284,0.0956,0.0944,0.0931,0.0857,0,0,0.0891,0.0885,0,0,0,0,0,0,0,0,0.2028,0.1996,0.1682,0.1667,0.165,0.1413,0.1504,0.1252,0.1285,0.1421,0.1284,0.1284,0.1105,0.1079,0.1019,0.0841,0.0827,0.089,0.0882,0.0876,0.0873,0,0,0,0,0,0,0,0.2046,0.2009,0.1659,0.1677,0.1658,0.1616,0.1579,0.1456,0.1269,0.1409,0.1396,0.1359,0.1096,0.1032,0.101,0.0822,0.089,0.0879,0.0871,0.0866,0.0565,0.0565,0,0,0,0,0,0,0.2085,0.2025,0.167,0.165,0.1842,0.1608,0.1566,0.149,0.1269,0.1236,0.136,0.1353,0.1054,0.1025,0.0997,0.0894,0.0876,0.0864,0.0857,0.0565,0.0565,0.0565,0,0,0,0,0,0,0.2096,0.2055,0.1683,0.1833,0.1783,0.16,0.1515,0.1483,0.1419,0.1232,0.1198,0.1329,0.1053,0.1016,0.0892,0.088,0.0858,0.0847,0.0566,0.0565,0.0565,0.0689,0,0,0,0,0,0,0.211,0.2059,0.2029,0.1834,0.1776,0.1584,0.1514,0.1477,0.1397,0.1384,0.1194,0.1162,0.105,0.0913,0.088,0.0862,0.0836,0.0566,0.0565,0.0565,0.0685,0.0693,0.07,0,0,0,0,0,0.2128,0.2078,0.2029,0.1987,0.1734,0.1584,0.155,0.1421,0.1397,0.1364,0.1245,0.1168,0.0888,0.0902,0.0863,0.0841,0.0566,0.0566,0.0565,0.0682,0.0692,0.07,0,0,0,0,0,0,0.2277,0.205,0.1993,0.1878,0.1752,0.1555,0.1511,0.1436,0.1313,0.1307,0.1152,0.1111,0.1002,0.0909,0.0929,0.0757,0.0719,0.0711,0.0821,0.0829,0.0836,0.086,0.0826,0,0,0,0,0,0.2297,0.2194,0.2001,0.1918,0.1858,0.1696,0.1626,0.1537,0.14,0.1345,0.1216,0.1086,0.0968,0.0893,0.0775,0.0672,0.0627,0.0638,0.0645,0.0652,0.0647,0.0583,0.0585,0.0564,0.0564,0.0564,0,0,0.2337,0.22,0.2144,0.1945,0.1836,0.1732,0.1652,0.1546,0.1467,0.1329,0.1204,0.1105,0.095,0.0836,0.0779,0.0755,0.0643,0.0652,0.0659,0.0649,0.0583,0.0586,0.0588,0.0564,0.0564,0.0564,0,0,0.2355,0.2242,0.216,0.2052,0.1888,0.1781,0.1762,0.1576,0.1505,0.1377,0.1271,0.1176,0.0976,0.0869,0.0789,0.0767,0.0692,0.0733,0.0771,0.0711,0.0713,0.0713,0.0704,0.0703,0.0728,0.0728,0.0729,0,0.2425,0.2264,0.2127,0.2026,0.1942,0.1812,0.1727,0.163,0.1437,0.1381,0.1357,0.1103,0.0989,0.0848,0.0842,0.0782,0.0755,0.0753,0.0724,0.0723,0.0721,0.0711,0.0708,0.0734,0.0734,0.0733,0.0732,0,0.2357,0.2247,0.2201,0.2016,0.1926,0.1835,0.1684,0.161,0.1529,0.1425,0.1296,0.1155,0.1005,0.0965,0.0886,0.0812,0.0802,0.0753,0.0711,0.0732,0.0719,0.0714,0.0743,0.0741,0.0739,0.0737,0,0,0.2459,0.22,0.2185,0.2099,0.1909,0.1821,0.1724,0.1576,0.1515,0.1386,0.1299,0.1134,0.1086,0.0996,0.0903,0.0852,0.0841,0.0808,0.0802,0.0818,0.0749,0.0786,0.0784,0.0791,0.0789,0.0788,0.0762,0,0.245,0.2267,0.2142,0.2009,0.1905,0.178,0.1695,0.1569,0.1469,0.1366,0.1255,0.1139,0.1087,0.1031,0.0974,0.0855,0.0825,0.0855,0.0708,0.0704,0.0749,0.0777,0.0815,0.0797,0.0756,0.0755,0.0754,0,0.2414,0.2287,0.2144,0.1964,0.1915,0.1841,0.1695,0.1599,0.1453,0.1384,0.1283,0.1188,0.1079,0.1049,0.0896,0.092,0.0852,0.0784,0.078,0.076,0.073,0.0756,0.0788,0.0785,0.0745,0.0746,0.0747,0,0.2501,0.2296,0.2182,0.2113,0.19,0.1851,0.176,0.1614,0.1533,0.1406,0.1352,0.1215,0.1139,0.1035,0.0906,0.0896,0.0766,0.0725,0.0704,0.0708,0.0681,0.0684,0.0701,0.0642,0.0642,0.0642,0.0642,0,0.2502,0.2419,0.2218,0.2149,0.2052,0.1908,0.1816,0.1715,0.1586,0.1495,0.1379,0.1296,0.1131,0.1028,0.0926,0.0815,0.0782,0.0722,0.0696,0.0731,0.0739,0.0684,0.0681,0.0641,0.0641,0.0641,0.0641,0,0.2582,0.2445,0.2313,0.2123,0.2073,0.201,0.1846,0.1774,0.1668,0.1553,0.1518,0.1351,0.1223,0.1085,0.091,0.0842,0.0735,0.0699,0.0784,0.0769,0.0755,0.0758,0.0736,0.0725,0.0676,0.0677,0.0677,0,0.2591,0.2524,0.2326,0.2256,0.2168,0.2057,0.1974,0.1831,0.1748,0.1577,0.1526,0.1389,0.1271,0.1073,0.0936,0.0802,0.076,0.0762,0.074,0.0777,0.0758,0.0763,0.0755,0.0769,0.077,0.0771,0.0772,0,0.2621,0.2556,0.244,0.23,0.2204,0.2087,0.1965,0.1915,0.1747,0.1661,0.1528,0.1437,0.1259,0.1124,0.0973,0.0879,0.0797,0.078,0.0768,0.0803,0.0854,0.0824,0.0801,0.0781,0.078,0.078,0.0779,0.0779,0.2664,0.2598,0.2448,0.2322,0.2216,0.2105,0.2027,0.1911,0.1797,0.164,0.1563,0.1431,0.1286,0.1075,0.0983,0.0877,0.0852,0.0835,0.083,0.0828,0.0836,0.0873,0.085,0.0849,0.0849,0.0849,0.0848,0,0.2686,0.2583,0.2469,0.2302,0.2204,0.2135,0.1997,0.1919,0.1804,0.1676,0.1563,0.141,0.1279,0.1132,0.0991,0.0935,0.0894,0.0903,0.0904,0.0884,0.0868,0.0892,0.0938,0.0938,0.0938,0.0938,0.0938,0.0938,0.2686,0.257,0.2487,0.2317,0.2215,0.2084,0.2011,0.1907,0.1804,0.1639,0.1529,0.1434,0.1298,0.1146,0.1023,0.0983,0.0936,0.0956,0.0905,0.0892,0.0885,0.0878,0.0899,0.0947,0.0947,0.0929,0.0929,0.0929]},{"header":{"parameterUnit":"m.s-1","parameterCategory":1,"la1":30.2991,"la2":30.254,"lo1":-89.0895,"lo2":-89.0444,"dy":0.0017,"dx":0.0017,"nx":28,"ny":28,"refTime":"2024-04-09T21:00:00:Z","depth":0,"parameterNumber":3,"parameterNumberName":"V-component_of_WINDS"},"data":[0,0,0,0,0,0,0,0,0,0,0,0,0,0,0,0,0,0,0,0,0,0,0,0,0,0,0,0,0,0,0,0,0,0,0,0,0,0,0,0,0,0,0,0,0,0,0,0,0,0,0,0,0,0,0,0,0,0,9.4685,9.469,0,9.5103,9.5107,9.5112,9.5191,9.5187,9.5184,9.5181,9.56,9.5614,9.5628,0,0,0,0,0,0,0,0,0,0,0,0,0,9.3947,9.396,9.4685,9.469,9.4695,9.5102,9.5108,9.5113,9.5191,9.5187,9.5183,9.5179,9.5595,9.5612,9.5629,0,0,0,0,0,0,0,0,0,0,0,0,0,9.4306,9.3965,9.4684,9.4783,9.4797,9.5101,9.5108,9.5115,9.5192,9.5187,9.5182,9.5178,9.559,9.561,9.5632,9.5863,0,0,9.5697,9.5706,0,0,0,0,0,0,0,0,9.4286,9.4333,9.4764,9.4777,9.4792,9.509,9.5001,9.5365,9.5193,9.5042,9.5181,9.5175,9.5434,9.5467,9.5557,9.5883,9.5901,9.5699,9.5712,9.5721,9.5727,0,0,0,0,0,0,0,9.4261,9.4315,9.485,9.477,9.4787,9.4805,9.485,9.5071,9.526,9.5055,9.5061,9.511,9.544,9.5536,9.5567,9.5907,9.5698,9.5717,9.573,9.5739,9.6445,9.6451,0,0,0,0,0,0,9.4219,9.4294,9.4837,9.4862,9.4522,9.4822,9.4873,9.4999,9.5258,9.5293,9.5114,9.5112,9.5502,9.5542,9.5582,9.5872,9.5721,9.5741,9.5753,9.6439,9.6447,9.6453,0,0,0,0,0,0,9.4203,9.4267,9.482,9.4581,9.4652,9.484,9.4981,9.501,9.5106,9.5303,9.5336,9.5177,9.5499,9.5552,9.5794,9.5888,9.575,9.577,9.6432,9.6442,9.645,9.6453,0,0,0,0,0,0,9.4182,9.4261,9.4352,9.4582,9.4665,9.5027,9.4987,9.5022,9.5143,9.5145,9.5371,9.5404,9.5499,9.5761,9.5815,9.5915,9.5787,9.6425,9.6437,9.6447,9.6445,9.6461,9.6474,0,0,0,0,0,9.4155,9.4334,9.4357,9.4422,9.4784,9.5032,9.5079,9.5188,9.515,9.5243,9.537,9.5397,9.5868,9.5785,9.5846,9.5954,9.6419,9.6433,9.6446,9.6439,9.6458,9.6474,0,0,0,0,0,0,9.4107,9.4366,9.4394,9.4653,9.4821,9.5045,9.5166,9.5204,9.5383,9.5377,9.5502,9.5552,9.5787,9.5894,9.5798,9.6192,9.6141,9.6167,9.6114,9.6134,9.6148,9.6118,9.5804,0,0,0,0,0,9.4128,9.4311,9.4525,9.4733,9.4816,9.4976,9.5088,9.5158,9.5335,9.5405,9.555,9.5718,9.5905,9.6025,9.6207,9.646,9.6511,9.6564,9.6578,9.6589,9.6611,9.6754,9.6781,9.6497,9.6497,9.6497,0,0,9.417,9.4334,9.4442,9.4728,9.4866,9.5051,9.5035,9.523,9.5368,9.5434,9.5673,9.5785,9.598,9.623,9.6346,9.6326,9.67,9.6606,9.6613,9.663,9.677,9.6797,9.6821,9.6506,9.6505,9.6503,0,0,9.4344,9.4486,9.4676,9.4815,9.5025,9.5131,9.5176,9.5396,9.5473,9.5715,9.5769,9.5933,9.6251,9.6389,9.6501,9.6727,9.6758,9.6782,9.6858,9.6996,9.7018,9.7039,9.7121,9.7149,9.6802,9.6802,9.6803,0,9.437,9.4653,9.4768,9.4963,9.5087,9.5158,9.5351,9.5479,9.5736,9.5819,9.5793,9.6195,9.6332,9.6615,9.667,9.6758,9.6813,9.6758,9.7006,9.7028,9.7049,9.7129,9.7159,9.6804,9.6804,9.6804,9.6804,0,9.4675,9.4871,9.4998,9.525,9.5388,9.558,9.5722,9.5848,9.5905,9.6012,9.6257,9.6424,9.6642,9.6714,9.677,9.7005,9.6987,9.6982,9.6933,9.7076,9.7153,9.7184,9.6807,9.6806,9.6806,9.6805,0,0,9.4831,9.5145,9.519,9.5305,9.5542,9.5694,9.5889,9.6106,9.6211,9.6385,9.6552,9.682,9.6818,9.6944,9.7016,9.7137,9.7308,9.7118,9.7125,9.7149,9.7579,9.7583,9.7617,9.7329,9.7335,9.734,9.7563,0,9.5034,9.5389,9.5498,9.5793,9.5975,9.6045,9.6215,9.6377,9.6482,9.665,9.6764,9.6954,9.6935,9.7013,9.7135,9.7261,9.7396,9.7246,9.7484,9.7492,9.7436,9.7657,9.7662,9.7864,9.7594,9.7599,9.7603,0,9.5319,9.5503,9.5818,9.6034,9.6114,9.6265,9.6473,9.6633,9.6817,9.6885,9.7028,9.709,9.7294,9.7232,9.7515,9.7411,9.7514,9.759,9.7601,9.7629,9.7557,9.7693,9.7932,9.7963,9.7651,9.7647,9.7644,0,9.5404,9.5729,9.5961,9.6057,9.6313,9.6418,9.6529,9.671,9.6833,9.7013,9.7095,9.7295,9.7405,9.7557,9.7671,9.7615,9.7944,9.7892,9.8006,9.8004,9.8074,9.8069,9.8335,9.8136,9.8136,9.8135,9.8135,0,9.5621,9.5811,9.6003,9.6145,9.636,9.6482,9.669,9.6804,9.6964,9.7128,9.7198,9.735,9.7491,9.7661,9.7751,9.7972,9.802,9.808,9.8102,9.8076,9.8069,9.8147,9.8137,9.8144,9.8142,9.814,9.8139,0,9.5753,9.5889,9.6146,9.6369,9.6429,9.6578,9.6768,9.6907,9.7015,9.7222,9.7277,9.7445,9.7649,9.7778,9.8036,9.8096,9.834,9.8356,9.8279,9.829,9.8398,9.8387,9.8726,9.8778,9.8542,9.8544,9.8545,0,9.5884,9.6033,9.6272,9.6389,9.6503,9.6689,9.6817,9.6941,9.7071,9.7293,9.7406,9.7615,9.779,9.8112,9.8255,9.8453,9.8476,9.8581,9.8506,9.8475,9.8481,9.8472,9.8488,9.8594,9.8596,9.8597,9.8599,0,9.6102,9.6163,9.6346,9.6553,9.6704,9.6872,9.704,9.713,9.7283,9.7425,9.7637,9.7772,9.8037,9.8244,9.8455,9.8566,9.8609,9.8621,9.8659,9.8634,9.8585,9.8616,9.8315,9.8613,9.8612,9.8611,9.861,9.8609,9.624,9.6376,9.6567,9.6769,9.6909,9.7064,9.7208,9.7334,9.7514,9.7743,9.7804,9.8025,9.8206,9.8494,9.861,9.8783,9.8769,9.8823,9.8837,9.8849,9.8852,9.8555,9.8822,9.8821,9.8821,9.8821,9.8821,0,9.6464,9.659,9.6775,9.701,9.7168,9.7196,9.7383,9.7513,9.7708,9.7875,9.8046,9.8289,9.849,9.865,9.8856,9.8964,9.8989,9.9015,9.9009,9.9035,9.8852,9.88,9.8992,9.8992,9.8992,9.8991,9.8991,9.8991,9.6599,9.6832,9.6915,9.7218,9.7342,9.7563,9.7668,9.7811,9.7945,9.8215,9.8384,9.8487,9.8652,9.8871,9.9056,9.9098,9.9171,9.9194,9.9239,9.9066,9.9047,9.9029,9.8982,9.9208,9.9208,9.9408,9.941,9.9411]}]]